Location: C.E.K. Mees Observatory
(42.7003°N, 77.4088°W)
Time: 05:36:36
(UTC-04:00)

Vanguard 3 - Pass Details

Date: 02 July 2018
Orbit: 508 x 3264 km, 33.3° (Epoch: 24 September)

Event Time Altitude Azimuth Distance (km) Brightness Sun altitude
Rises 05:23:22 0° 257° (WSW) 2,965 - -2.7°
Exits shadow 05:23:47 - 254° (WSW) 2,839 9.3 -2.7°
Reaches altitude 10° 05:25:59 10° 237° (WSW) 2,288 8.8 -2.4°
Maximum altitude 05:29:42 19° 193° (SSW) 2,101 8.9 -1.8°
Drops below altitude 10° 05:34:45 10° 151° (SSE) 3,264 10.2 -1.0°
Sets 05:39:31 0° 137° (SE) 4,804 11.2 -0.3°
